Change the Weather History Date:

Thursday, May 15, 2014

  Actual Average (LFRT) Record (LFRT)
Temperature  
Mean Temperature 58 °F -  
Max Temperature 63 °F 60 °F 77 °F (2000)
Min Temperature 53 °F 47 °F 41 °F (2003)
Degree Days  
Heating Degree Days 7    
Growing Degree Days 8 (Base 50)    
Moisture  
Dew Point 49 °F    
Average Humidity 66    
Maximum Humidity 88    
Minimum Humidity 45    
Precipitation  
Precipitation 0.00 in - - ()
Sea Level Pressure  
Sea Level Pressure 30.55 in    
Wind  
Wind Speed 8 mph ()    
Max Wind Speed 14 mph    
Max Gust Speed -    
Visibility 7.2 miles    
Events      
Averages and records for this station are not official NWS values.
T = Trace of Precipitation, MM = Missing Value Source: Averaged Metar Reports

Daily Weather History Graph

Daily Weather History Graph

Search for Another Location

Airport or City:

Trip Planner

Search our weather history database for the weather conditions in past years. The results will help you decide how hot, cold, wet, or windy it might be!

Date:

Astronomy

May. 15, 2014 Rise Set
Actual Time 6:32 AM CEST 9:48 PM CEST
Civil Twilight 5:54 AM CEST 10:26 PM CEST
Nautical Twilight 5:05 AM CEST 11:16 PM CEST
Astronomical Twilight 4:01 AM CEST 12:21 AM CEST
Moon 10:41 PM CEST (5/15) 7:09 AM CEST (5/15)
Length of Visible Light 16h 31m
Length of Day
15h 15m
Waxing Gibbous, 99% of the Moon is Illuminated
May 15
Waxing Gibbous
May 21
Last Quarter
May 28
New
Jun 5
First Quarter
Jun 13
Full

Hourly Weather History & Observations

Time (CEST) Temp. Dew Point Humidity Pressure Visibility Wind Dir Wind Speed Gust Speed Precip Events Conditions
11:00 AM 63 °F 47 °F 45% 30.58 in 12 mi East 8.1 mph - -   Clear
11:30 AM 62.6 °F 51.8 °F 68% 30.57 in 6.2 mi NNE 5.8 mph - N/A   Unknown
12:30 PM 62.6 °F 51.8 °F 68% 30.57 in 6.2 mi NNE 6.9 mph - N/A   Unknown
1:00 PM 61 °F 51 °F 60% 30.58 in 37 mi North 10.4 mph - -   Clear
1:00 PM 60.8 °F 50.0 °F 68% 30.57 in 6.2 mi North 10.4 mph - N/A   Partly Cloudy
1:30 PM 60.8 °F 50.0 °F 68% 30.57 in 6.2 mi NNE 10.4 mph - N/A   Unknown
2:00 PM 62 °F 48 °F 49% 30.58 in 37 mi NNE 10.4 mph - -   Clear
2:00 PM 62.6 °F 48.2 °F 59% 30.57 in 6.2 mi NNE 10.4 mph - N/A   Unknown
2:30 PM 62.6 °F 50.0 °F 63% 30.57 in 6.2 mi North 9.2 mph - N/A   Unknown
3:00 PM 62 °F 48 °F 51% 30.57 in 34 mi North 12.7 mph - -   Clear
3:00 PM 62.6 °F 48.2 °F 59% 30.57 in 6.2 mi North 12.7 mph - N/A   Unknown
3:30 PM 62.6 °F 48.2 °F 59% 30.57 in 6.2 mi NNE 11.5 mph - N/A   Partly Cloudy
4:00 PM 60 °F 48 °F 56% 30.57 in 12 mi North 13.8 mph - -   Clear
4:00 PM 60.8 °F 48.2 °F 63% 30.57 in 6.2 mi North 12.7 mph - N/A   Unknown
4:30 PM 60.8 °F 48.2 °F 63% 30.54 in 6.2 mi NNE 12.7 mph - N/A   Unknown
5:00 PM 60 °F 48 °F 55% 30.56 in 12 mi NNE 12.7 mph - -   Clear
5:00 PM 60.8 °F 48.2 °F 63% 30.54 in 6.2 mi NNE 10.4 mph - N/A   Unknown
5:30 PM 59.0 °F 50.0 °F 72% 30.54 in 6.2 mi North 13.8 mph - N/A   Unknown
6:00 PM 60 °F 49 °F 59% 30.56 in 28 mi NNE 10.4 mph - -   Clear
6:00 PM 59.0 °F 50.0 °F 72% 30.54 in 6.2 mi NNE 10.4 mph - N/A   Unknown
6:30 PM 60.8 °F 48.2 °F 63% 30.54 in 6.2 mi NNE 9.2 mph - N/A   Unknown
7:00 PM 60 °F 48 °F 56% 30.55 in 12 mi NNE 8.1 mph - -   Clear
7:00 PM 59.0 °F 48.2 °F 67% 30.54 in 6.2 mi NNE 8.1 mph - N/A   Unknown
7:30 PM 59.0 °F 48.2 °F 67% 30.54 in 6.2 mi NNE 9.2 mph - N/A   Unknown
8:00 PM 58 °F 49 °F 65% 30.55 in 34 mi North 8.1 mph - -   Clear
8:00 PM 59.0 °F 50.0 °F 72% 30.54 in 6.2 mi North 8.1 mph - N/A   Unknown
8:30 PM 59.0 °F 48.2 °F 67% 30.54 in 6.2 mi North 6.9 mph - N/A   Unknown
9:00 PM 58 °F 47 °F 58% 30.54 in 34 mi NNE 4.6 mph - -   Clear
9:00 PM 59.0 °F 46.4 °F 63% 30.51 in 6.2 mi NNE 3.5 mph - N/A   Unknown
9:30 PM 55.4 °F 50.0 °F 82% 30.51 in 6.2 mi North 6.9 mph - N/A   Unknown
10:00 PM 54 °F 50 °F 80% 30.54 in 22 mi NNE 5.8 mph - -   Clear
10:00 PM 53.6 °F 50.0 °F 88% 30.54 in 6.2 mi NNE 4.6 mph - N/A   Unknown
10:30 PM 53.6 °F 50.0 °F 88% 30.54 in 6.2 mi NNE 4.6 mph - N/A   Unknown
11:00 PM 53 °F 48 °F 78% 30.56 in 12 mi NE 3.5 mph - -   Clear
11:00 PM 53.6 °F 48.2 °F 82% 30.54 in 6.2 mi Variable 3.5 mph - N/A   Unknown
11:30 PM 53.6 °F 46.4 °F 77% 30.54 in 6.2 mi ENE 6.9 mph - N/A   Unknown